Location: Bruderhein
(53.8035°N, 112.9265°W)
Time: 11:50:25
(UTC+00:00)

DIWATA 2B (PO-101) - Pass Details

Date: 29 March 2023
Orbit: 581 x 593 km, 98.0° (Epoch: 30 May)

Event Time Altitude Azimuth Distance (km) Brightness Sun altitude
Exits shadow 09:29:23 41° 7° (N) 857 ? -28.2°
Drops below altitude 10° 09:32:13 10° 350° (N) 1,914 ? -28.0°
Sets 09:34:24 0° 348° (NNW) 2,819 ? -27.8°
